Home   Weather   Yangon   Past weeks

Flag for Myanmar Past Weather in Yangon, Myanmar — Yesterday and Last 2 Weeks

Now
75 °F

Passing clouds.


Feels Like: 75 °F
Forecast: 75 / 88 °F
Wind: 6 mph from Northwest

Location: Rangoon Airport

Current Time: Dec 4, 2016 at 8:31:13 am

Latest Report: Dec 4, 2016 at 8:00 am


Visibility: 4 mi

Pressure: 29.98 "Hg

Humidity: 83%

Dew Point: 70 °F

Location of YangonLocation

Past Weather in Yangon — Graph

°F

Yangon Temperature Yesterday

Maximum temperature yesterday: 91 °F (at 1:00 pm)
Minimum temperature yesterday: 73 °F (at 5:00 am)
Average temperature yesterday: 83 °F

High & Low Weather Summary for the Past Weeks

 TemperatureHumidityPressure
High93 °F (Nov 26, 3:30 pm)100% (Nov 21, 6:30 am)30.09 "Hg (Nov 21, 6:30 am)
Low64 °F (Nov 24, 6:00 am)29% (Nov 23, 3:00 pm)29.74 "Hg (Nov 19, 3:00 pm)
Average81 °F73%29.87 "Hg
* Reported Nov 19 6:30 am — Dec 4 7:00 am, Yangon, Weather by CustomWeather, © 2016

Note: Actual official high and low records may vary slightly from our data, if they occured in-between our weather recording intervals... More about our weather records

Advertising

Yangon Weather History for the Previous 24 Hours

Scroll right to see more
 ConditionsComfort  
Time TempWeatherWind HumidityBarometerVisibility
7:00 am
Sun, Dec 4
73 °FScattered clouds.2 mph89%29.98 "Hg4 mi
6:30 am73 °FPassing clouds.2 mph89%29.95 "Hg4 mi
5:30 am73 °FPassing clouds.2 mph89%29.92 "Hg4 mi
5:00 am73 °FPassing clouds.2 mph89%29.92 "Hg4 mi
1:00 am77 °FPassing clouds.2 mph89%29.95 "Hg4 mi
12:30 am77 °FPassing clouds.3 mph89%29.95 "Hg4 mi
12:00 am77 °FPassing clouds.3 mph89%29.95 "Hg4 mi
11:00 pm
Sat, Dec 3
79 °FPassing clouds.5 mph84%29.95 "Hg4 mi
10:30 pm79 °FPassing clouds.3 mph84%29.98 "Hg4 mi
10:00 pm79 °FPassing clouds.6 mph84%29.95 "Hg4 mi
9:30 pm79 °FPassing clouds.2 mph84%29.98 "Hg4 mi
9:00 pm81 °FPassing clouds.2 mph79%29.98 "Hg4 mi
8:30 pm81 °FPassing clouds.2 mph79%29.95 "Hg4 mi
8:00 pm82 °FPassing clouds.3 mph70%29.95 "Hg4 mi
7:30 pm84 °FPassing clouds.2 mph70%29.95 "Hg4 mi
7:00 pm84 °FPassing clouds.6 mph70%29.92 "Hg4 mi
6:30 pm84 °FPassing clouds.6 mph70%29.92 "Hg4 mi
6:00 pm84 °FPassing clouds.5 mph70%29.92 "Hg4 mi
5:30 pm88 °FPartly sunny.6 mph66%29.89 "Hg4 mi
5:00 pm90 °FScattered clouds.5 mph63%29.89 "Hg5 mi
4:30 pm91 °FScattered clouds.5 mph52%29.89 "Hg6 mi
4:00 pm91 °FScattered clouds.5 mph52%29.89 "Hg6 mi
3:00 pm91 °FScattered clouds.9 mph52%29.89 "Hg6 mi
2:30 pm91 °FScattered clouds.10 mph52%29.89 "Hg6 mi
2:00 pm91 °FScattered clouds.8 mph52%29.89 "Hg6 mi
1:30 pm91 °FPassing clouds.5 mph52%29.92 "Hg5 mi
1:00 pm91 °FScattered clouds.6 mph59%29.92 "Hg5 mi
12:30 pm90 °FScattered clouds.5 mph63%29.95 "Hg5 mi
12:00 pm88 °FScattered clouds.5 mph66%29.95 "Hg5 mi
11:30 am88 °FPassing clouds.3 mph66%29.98 "Hg5 mi
10:30 am82 °FClear.5 mph70%30.01 "Hg5 mi
10:00 am81 °FClear.8 mph79%30.01 "Hg4 mi
9:30 am79 °FClear.12 mph74%30.01 "Hg4 mi
9:00 am77 °FPassing clouds.12 mph83%30.01 "Hg5 mi
8:30 am77 °FPassing clouds.6 mph83%29.98 "Hg5 mi
Weather by CustomWeather, © 2016

See weather overviewHow to use our weather pages